Location: Carnetin
(48.9010°N, 2.7059°E)
Time: 19:33:40
(UTC+00:00)

PAYLOAD B - Pass Details

Date: 24 October 2021
Orbit: 849 x 871 km, 99.1° (Epoch: 07 December)

Event Time Altitude Azimuth Distance (km) Brightness Sun altitude
Rises 17:04:25 0° 152° (SSE) 3,416 7.2 -4.3°
Reaches altitude 10° 17:06:48 10° 150° (SSE) 2,487 6.5 -4.7°
Maximum altitude 17:12:15 65° 70° (ENE) 950 4.3 -5.6°
Drops below altitude 10° 17:17:47 10° 350° (N) 2,519 6.7 -6.5°
Sets 17:20:11 0° 347° (NNW) 3,463 7.4 -6.9°
